| time (UTC) | temp C | wind direction | speed KPH | gust KPH | rain 1hr cm | rain 24hr cm | rain mn cm | humidity % | barometer mb |
| 20260905213839 | 30 | 167 | 4.8 | 12.9 | 0.00 | 0.00 | 0.00 | 49 | 1016.9 |
| 20260905213336 | 30 | 229 | 1.6 | 4.8 | 0.00 | 0.00 | 0.00 | 49 | 1016.9 |
| 20260905212835 | 30 | 81 | 1.6 | 4.8 | 0.00 | 0.00 | 0.00 | 51 | 1017.0 |
| 20260905212330 | 30 | 265 | 3.2 | 14.5 | 0.00 | 0.00 | 0.00 | 50 | 1016.9 |
| 20260905211824 | 30 | 76 | 0.0 | 3.2 | 0.00 | 0.00 | 0.00 | 51 | 1017.1 |
| 20260905211320 | 30 | 59 | 1.6 | 14.5 | 0.00 | 0.00 | 0.00 | 51 | 1017.0 |
| 20260905210817 | 30 | 45 | 0.0 | 6.4 | 0.00 | 0.00 | 0.00 | 50 | 1017.2 |
| 20260905210316 | 30 | 230 | 3.2 | 11.3 | 0.00 | 0.00 | 0.00 | 48 | 1017.3 |
| 20260905205815 | 30 | 233 | 3.2 | 9.7 | 0.00 | 0.00 | 0.00 | 49 | 1017.1 |
| 20260905205310 | 30 | 99 | 3.2 | 9.7 | 0.00 | 0.00 | 0.00 | 48 | 1017.3 |
| 20260905204809 | 30 | 5 | 1.6 | 6.4 | 0.00 | 0.00 | 0.00 | 47 | 1017.2 |
| 20260905204305 | 30 | 114 | 0.0 | 6.4 | 0.00 | 0.00 | 0.00 | 47 | 1017.3 |
| 20260905203804 | 30 | 221 | 6.4 | 12.9 | 0.00 | 0.00 | 0.00 | 46 | 1017.4 |
| 20260905203300 | 30 | 65 | 0.0 | 9.7 | 0.00 | 0.00 | 0.00 | 46 | 1017.4 |
| 20260905202755 | 30 | 48 | 1.6 | 6.4 | 0.00 | 0.00 | 0.00 | 44 | 1017.3 |
| 20260905202250 | 30 | 167 | 0.0 | 3.2 | 0.00 | 0.00 | 0.00 | 45 | 1017.6 |
| 20260905201745 | 30 | 5 | 1.6 | 6.4 | 0.00 | 0.00 | 0.00 | 46 | 1017.5 |
| 20260905201240 | 30 | 47 | 1.6 | 11.3 | 0.00 | 0.00 | 0.00 | 45 | 1017.5 |
| 20260905200736 | 30 | 146 | 1.6 | 12.9 | 0.00 | 0.00 | 0.00 | 45 | 1017.6 |
| 20260905200231 | 31 | 200 | 1.6 | 11.3 | 0.00 | 0.00 | 0.00 | 45 | 1017.6 |
| 20260905195729 | 31 | 240 | 4.8 | 11.3 | 0.00 | 0.00 | 0.00 | 43 | 1017.5 |
| 20260905195224 | 31 | 271 | 3.2 | 9.7 | 0.00 | 0.00 | 0.00 | 43 | 1017.8 |
| 20260905194720 | 31 | 124 | 0.0 | 6.4 | 0.00 | 0.00 | 0.00 | 41 | 1017.8 |
| 20260905194219 | 31 | 231 | 6.4 | 6.4 | 0.00 | 0.00 | 0.00 | 41 | 1017.7 |
| 20260905193713 | 31 | 87 | 1.6 | 3.2 | 0.00 | 0.00 | 0.00 | 34 | 1017.8 |
| 20260905193208 | 30 | 144 | 3.2 | 3.2 | 0.00 | 0.00 | 0.00 | 35 | 1017.8 |
| 20260905192704 | 30 | 108 | 1.6 | 1.6 | 0.00 | 0.00 | 0.00 | 38 | 1017.8 |
| 20260905192200 | 30 | 95 | 0.0 | 1.6 | 0.00 | 0.00 | 0.00 | 38 | 1018.0 |
| 20260905191700 | 30 | 61 | 1.6 | 4.8 | 0.00 | 0.00 | 0.00 | 38 | 1018.1 |
| 20260905191157 | 30 | 102 | 1.6 | 4.8 | 0.00 | 0.00 | 0.00 | 39 | 1018.0 |
| 20260905190657 | 30 | 147 | 0.0 | 6.4 | 0.00 | 0.00 | 0.00 | 40 | 1018.1 |
| 20260905190156 | 30 | 122 | 1.6 | 3.2 | 0.00 | 0.00 | 0.00 | 40 | 1018.1 |
| 20260905185655 | 30 | 157 | 1.6 | 3.2 | 0.00 | 0.00 | 0.00 | 40 | 1018.2 |
| 20260905185149 | 29 | 70 | 1.6 | 3.2 | 0.00 | 0.00 | 0.00 | 39 | 1018.5 |
| 20260905184649 | 29 | 146 | 0.0 | 0.0 | 0.00 | 0.00 | 0.00 | 40 | 1018.5 |
| 20260905184148 | 28 | 126 | 0.0 | 1.6 | 0.00 | 0.00 | 0.00 | 39 | 1018.2 |
| 20260905183642 | 28 | 43 | 0.0 | 1.6 | 0.00 | 0.00 | 0.00 | 40 | 1018.4 |
| 20260905183137 | 28 | 140 | 1.6 | 4.8 | 0.00 | 0.00 | 0.00 | 41 | 1018.3 |
| 20260905182636 | 28 | 166 | 0.0 | 3.2 | 0.00 | 0.00 | 0.00 | 39 | 1018.5 |
| 20260905182131 | 28 | 150 | 1.6 | 9.7 | 0.00 | 0.00 | 0.00 | 40 | 1018.6 |
| 20260905181626 | 28 | 85 | 0.0 | 1.6 | 0.00 | 0.00 | 0.00 | 42 | 1018.6 |
| 20260905181125 | 28 | 70 | 3.2 | 6.4 | 0.00 | 0.00 | 0.00 | 41 | 1018.7 |
| 20260905180620 | 27 | 65 | 1.6 | 3.2 | 0.00 | 0.00 | 0.00 | 43 | 1018.7 |
| 20260905180115 | 27 | 98 | 1.6 | 3.2 | 0.00 | 0.00 | 0.00 | 42 | 1018.7 |
| 20260905175615 | 27 | 157 | 0.0 | 1.6 | 0.00 | 0.00 | 0.00 | 43 | 1018.7 |
| 20260905175110 | 27 | 105 | 3.2 | 6.4 | 0.00 | 0.00 | 0.00 | 43 | 1018.6 |
| 20260905174605 | 27 | 230 | 1.6 | 4.8 | 0.00 | 0.00 | 0.00 | 44 | 1018.7 |
| 20260905174101 | 27 | 134 | 0.0 | 1.6 | 0.00 | 0.00 | 0.00 | 48 | 1018.7 |
| 20260905173557 | 26 | 85 | 0.0 | 1.6 | 0.00 | 0.00 | 0.00 | 49 | 1018.8 |
| 20260905173052 | 26 | 199 | 3.2 | 4.8 | 0.00 | 0.00 | 0.00 | 46 | 1018.6 |
| 20260905172551 | 26 | 140 | 3.2 | 4.8 | 0.00 | 0.00 | 0.00 | 50 | 1018.5 |
| 20260905172047 | 26 | 154 | 3.2 | 4.8 | 0.00 | 0.00 | 0.00 | 51 | 1018.6 |
| 20260905171543 | 26 | 87 | 1.6 | 3.2 | 0.00 | 0.00 | 0.00 | 54 | 1018.5 |
| 20260905171038 | 25 | 145 | 0.0 | 1.6 | 0.00 | 0.00 | 0.00 | 54 | 1018.4 |
| 20260905170535 | 25 | 75 | 0.0 | 1.6 | 0.00 | 0.00 | 0.00 | 55 | 1018.5 |
| 20260905170030 | 26 | 135 | 1.6 | 1.6 | 0.00 | 0.00 | 0.00 | 53 | 1018.4 |
| 20260905165524 | 25 | 140 | 0.0 | 3.2 | 0.00 | 0.00 | 0.00 | 58 | 1018.5 |
| 20260905165019 | 25 | 117 | 0.0 | 3.2 | 0.00 | 0.00 | 0.00 | 61 | 1018.6 |
| 20260905164514 | 25 | 174 | 3.2 | 4.8 | 0.00 | 0.00 | 0.00 | 60 | 1018.5 |
| 20260905164009 | 25 | 163 | 1.6 | 1.6 | 0.00 | 0.00 | 0.00 | 59 | 1018.3 |
| 20260905163505 | 25 | 91 | 1.6 | 1.6 | 0.00 | 0.00 | 0.00 | 60 | 1018.4 |
| 20260905163001 | 25 | 134 | 3.2 | 3.2 | 0.00 | 0.00 | 0.00 | 61 | 1018.3 |
| 20260905162456 | 24 | 117 | 1.6 | 3.2 | 0.00 | 0.00 | 0.00 | 63 | 1018.1 |
| 20260905161951 | 23 | 119 | 1.6 | 1.6 | 0.00 | 0.00 | 0.00 | 64 | 1018.2 |
| 20260905161450 | 23 | 123 | 0.0 | 3.2 | 0.00 | 0.00 | 0.00 | 68 | 1018.4 |
| 20260905160948 | 23 | 111 | 0.0 | 1.6 | 0.00 | 0.00 | 0.00 | 69 | 1018.4 |
| 20260905160442 | 23 | 142 | 1.6 | 3.2 | 0.00 | 0.00 | 0.00 | 69 | 1018.3 |
| 20260905155941 | 22 | 134 | 0.0 | 1.6 | 0.00 | 0.00 | 0.00 | 73 | 1018.4 |
| 20260905155437 | 22 | 81 | 3.2 | 4.8 | 0.00 | 0.00 | 0.00 | 72 | 1018.5 |
| 20260905154935 | 21 | 142 | 0.0 | 3.2 | 0.00 | 0.00 | 0.00 | 75 | 1018.3 |
| 20260905154431 | 21 | 118 | 0.0 | 1.6 | 0.00 | 0.00 | 0.00 | 78 | 1018.3 |
| 20260905153926 | 21 | 98 | 3.2 | 4.8 | 0.00 | 0.00 | 0.00 | 76 | 1018.1 |
| 20260905153423 | 21 | 128 | 0.0 | 3.2 | 0.00 | 0.00 | 0.00 | 78 | 1018.1 |
| 20260905152922 | 20 | 145 | 1.6 | 1.6 | 0.00 | 0.00 | 0.00 | 79 | 1018.3 |
| 20260905152422 | 20 | 69 | 3.2 | 3.2 | 0.00 | 0.00 | 0.00 | 81 | 1018.2 |
| 20260905151917 | 20 | 105 | 1.6 | 3.2 | 0.00 | 0.00 | 0.00 | 82 | 1018.2 |
| 20260905151413 | 20 | 95 | 3.2 | 4.8 | 0.00 | 0.00 | 0.00 | 82 | 1018.2 |
| 20260905150912 | 20 | 107 | 3.2 | 3.2 | 0.00 | 0.00 | 0.00 | 83 | 1018.0 |
| 20260905150407 | 20 | 107 | 0.0 | 1.6 | 0.00 | 0.00 | 0.00 | 83 | 1017.9 |
| 20260905145903 | 19 | 104 | 1.6 | 1.6 | 0.00 | 0.00 | 0.00 | 83 | 1018.2 |
| 20260905145358 | 19 | 100 | 1.6 | 3.2 | 0.00 | 0.00 | 0.00 | 84 | 1017.9 |
| 20260905144858 | 18 | 106 | 0.0 | 0.0 | 0.00 | 0.00 | 0.00 | 85 | 1017.8 |
| 20260905144353 | 18 | 105 | 1.6 | 1.6 | 0.00 | 0.00 | 0.00 | 85 | 1017.9 |
| 20260905143852 | 18 | 109 | 1.6 | 1.6 | 0.00 | 0.00 | 0.00 | 85 | 1017.7 |
| 20260905143346 | 17 | 125 | 0.0 | 0.0 | 0.00 | 0.00 | 0.00 | 87 | 1017.8 |
| 20260905142846 | 17 | 140 | 0.0 | 3.2 | 0.00 | 0.00 | 0.00 | 88 | 1017.7 |
| 20260905142344 | 17 | 122 | 0.0 | 0.0 | 0.00 | 0.00 | 0.00 | 89 | 1017.9 |
| 20260905141840 | 17 | 134 | 0.0 | 0.0 | 0.00 | 0.00 | 0.00 | 90 | 1017.8 |
| 20260905141336 | 16 | 130 | 0.0 | 0.0 | 0.00 | 0.00 | 0.00 | 92 | 1017.6 |
| 20260905140832 | 16 | 132 | 0.0 | 0.0 | 0.00 | 0.00 | 0.00 | 93 | 1017.6 |
| 20260905140332 | 15 | 135 | 0.0 | 0.0 | 0.00 | 0.00 | 0.00 | 95 | 1017.6 |
| 20260905135830 | 15 | 137 | 0.0 | 0.0 | 0.00 | 0.00 | 0.00 | 96 | 1017.6 |
| 20260905135326 | 15 | 142 | 0.0 | 0.0 | 0.00 | 0.00 | 0.00 | 96 | 1017.5 |
| 20260905134821 | 14 | 147 | 0.0 | 0.0 | 0.00 | 0.00 | 0.00 | 96 | 1017.4 |
| 20260905134314 | 14 | 143 | 0.0 | 0.0 | 0.00 | 0.00 | 0.00 | 96 | 1017.4 |
| 20260905133809 | 15 | 153 | 0.0 | 0.0 | 0.00 | 0.00 | 0.00 | 96 | 1017.1 |
| 20260905133304 | 15 | 144 | 0.0 | 0.0 | 0.00 | 0.00 | 0.00 | 96 | 1017.1 |
| 20260905132803 | 15 | 126 | 0.0 | 0.0 | 0.00 | 0.00 | 0.00 | 96 | 1017.0 |
| 20260905132259 | 15 | 140 | 0.0 | 0.0 | 0.00 | 0.00 | 0.00 | 96 | 1017.1 |
| 20260905131753 | 15 | 151 | 0.0 | 0.0 | 0.00 | 0.00 | 0.00 | 96 | 1017.1 |
| 20260905131249 | 15 | 135 | 0.0 | 0.0 | 0.00 | 0.00 | 0.00 | 96 | 1017.0 |
| 20260905130744 | 15 | 138 | 0.0 | 0.0 | 0.00 | 0.00 | 0.00 | 96 | 1016.9 |
| 20260905130243 | 15 | 138 | 0.0 | 0.0 | 0.00 | 0.00 | 0.00 | 96 | 1016.9 |
| 20260905125738 | 15 | 157 | 0.0 | 1.6 | 0.00 | 0.00 | 0.00 | 96 | 1017.1 |
| 20260905125233 | 15 | 135 | 0.0 | 0.0 | 0.00 | 0.00 | 0.00 | 96 | 1017.3 |
| 20260905124730 | 15 | 135 | 0.0 | 0.0 | 0.00 | 0.00 | 0.00 | 96 | 1017.1 |
| 20260905124225 | 15 | 120 | 0.0 | 0.0 | 0.00 | 0.00 | 0.00 | 96 | 1017.0 |
| 20260905123720 | 15 | 125 | 0.0 | 0.0 | 0.00 | 0.00 | 0.00 | 96 | 1016.8 |
| 20260905123217 | 15 | 159 | 3.2 | 3.2 | 0.00 | 0.00 | 0.00 | 97 | 1016.8 |
| 20260905122717 | 15 | 151 | 0.0 | 0.0 | 0.00 | 0.00 | 0.00 | 97 | 1017.0 |
| 20260905122211 | 15 | 144 | 0.0 | 0.0 | 0.00 | 0.00 | 0.00 | 97 | 1016.7 |
| 20260905121706 | 15 | 146 | 0.0 | 0.0 | 0.00 | 0.00 | 0.00 | 97 | 1016.7 |
| 20260905121202 | 15 | 144 | 0.0 | 0.0 | 0.00 | 0.00 | 0.00 | 97 | 1017.0 |
| 20260905120701 | 15 | 136 | 0.0 | 0.0 | 0.00 | 0.00 | 0.00 | 97 | 1016.9 |
| 20260905120156 | 15 | 147 | 0.0 | 0.0 | 0.00 | 0.00 | 0.00 | 97 | 1017.0 |
| 20260905115656 | 15 | 153 | 1.6 | 1.6 | 0.00 | 0.00 | 0.00 | 97 | 1016.9 |
| 20260905115151 | 15 | 143 | 0.0 | 0.0 | 0.00 | 0.00 | 0.00 | 97 | 1016.8 |
| 20260905114651 | 15 | 138 | 0.0 | 0.0 | 0.00 | 0.00 | 0.00 | 97 | 1017.1 |
| 20260905114149 | 15 | 137 | 0.0 | 0.0 | 0.00 | 0.00 | 0.00 | 96 | 1017.0 |
| 20260905113649 | 15 | 133 | 0.0 | 0.0 | 0.00 | 0.00 | 0.00 | 96 | 1016.9 |
| 20260905113145 | 15 | 151 | 0.0 | 0.0 | 0.00 | 0.00 | 0.00 | 96 | 1017.0 |
| 20260905112638 | 15 | 161 | 0.0 | 0.0 | 0.00 | 0.00 | 0.00 | 96 | 1017.2 |
| 20260905112135 | 15 | 160 | 0.0 | 0.0 | 0.00 | 0.00 | 0.00 | 96 | 1017.0 |
| 20260905111634 | 15 | 142 | 0.0 | 0.0 | 0.00 | 0.00 | 0.00 | 96 | 1016.9 |
| 20260905111134 | 15 | 137 | 0.0 | 0.0 | 0.00 | 0.00 | 0.00 | 96 | 1017.0 |
| 20260905110633 | 15 | 143 | 0.0 | 0.0 | 0.00 | 0.00 | 0.00 | 96 | 1016.9 |
| 20260905110128 | 15 | 143 | 0.0 | 0.0 | 0.00 | 0.00 | 0.00 | 96 | 1017.1 |
| 20260905105623 | 15 | 99 | 0.0 | 1.6 | 0.00 | 0.00 | 0.00 | 96 | 1017.3 |
| 20260905105122 | 15 | 133 | 0.0 | 1.6 | 0.00 | 0.00 | 0.00 | 96 | 1017.0 |
| 20260905104618 | 15 | 93 | 0.0 | 1.6 | 0.00 | 0.00 | 0.00 | 96 | 1017.0 |
| 20260905104113 | 15 | 97 | 1.6 | 3.2 | 0.00 | 0.00 | 0.00 | 96 | 1017.2 |
| 20260905103609 | 15 | 127 | 0.0 | 0.0 | 0.00 | 0.00 | 0.00 | 96 | 1017.0 |
| 20260905103104 | 15 | 131 | 0.0 | 0.0 | 0.00 | 0.00 | 0.00 | 97 | 1016.9 |
| 20260905102554 | 15 | 94 | 0.0 | 0.0 | 0.00 | 0.00 | 0.00 | 97 | 1017.0 |
| 20260905102051 | 15 | 127 | 0.0 | 0.0 | 0.00 | 0.00 | 0.00 | 97 | 1017.2 |
| 20260905101549 | 15 | 144 | 0.0 | 0.0 | 0.00 | 0.00 | 0.00 | 97 | 1017.1 |
| 20260905101047 | 15 | 138 | 0.0 | 0.0 | 0.00 | 0.00 | 0.00 | 97 | 1017.0 |
| 20260905100544 | 15 | 147 | 0.0 | 0.0 | 0.00 | 0.00 | 0.00 | 97 | 1017.0 |
| 20260905100043 | 15 | 136 | 0.0 | 0.0 | 0.00 | 0.00 | 0.00 | 98 | 1017.2 |
| 20260905095538 | 15 | 129 | 0.0 | 0.0 | 0.00 | 0.00 | 0.00 | 98 | 1017.3 |
| 20260905095033 | 15 | 145 | 0.0 | 0.0 | 0.00 | 0.00 | 0.00 | 98 | 1017.2 |
| 20260905094528 | 15 | 150 | 0.0 | 0.0 | 0.00 | 0.00 | 0.00 | 98 | 1017.0 |
| 20260905094027 | 15 | 129 | 0.0 | 0.0 | 0.00 | 0.00 | 0.00 | 98 | 1017.2 |
| 20260905093522 | 15 | 138 | 0.0 | 0.0 | 0.00 | 0.00 | 0.00 | 98 | 1017.4 |
| 20260905093019 | 15 | 141 | 0.0 | 0.0 | 0.00 | 0.00 | 0.00 | 98 | 1017.2 |
| 20260905092519 | 15 | 151 | 0.0 | 0.0 | 0.00 | 0.00 | 0.00 | 98 | 1017.2 |
| 20260905092015 | 15 | 147 | 0.0 | 0.0 | 0.00 | 0.00 | 0.00 | 98 | 1017.1 |
| 20260905091513 | 15 | 158 | 0.0 | 0.0 | 0.00 | 0.00 | 0.00 | 98 | 1017.1 |
| 20260905091008 | 15 | 188 | 0.0 | 0.0 | 0.00 | 0.00 | 0.00 | 98 | 1017.4 |
| 20260905090502 | 15 | 145 | 0.0 | 0.0 | 0.00 | 0.00 | 0.00 | 98 | 1017.3 |
| 20260905090002 | 15 | 145 | 0.0 | 0.0 | 0.00 | 0.00 | 0.00 | 98 | 1017.3 |
| 20260905085501 | 15 | 145 | 0.0 | 0.0 | 0.00 | 0.00 | 0.00 | 98 | 1017.3 |
| 20260905084957 | 15 | 145 | 0.0 | 0.0 | 0.00 | 0.00 | 0.00 | 98 | 1017.6 |
| 20260905084456 | 16 | 134 | 0.0 | 0.0 | 0.00 | 0.00 | 0.00 | 98 | 1017.5 |
| 20260905083952 | 16 | 158 | 0.0 | 0.0 | 0.00 | 0.00 | 0.00 | 98 | 1017.6 |
| 20260905083447 | 16 | 158 | 0.0 | 0.0 | 0.00 | 0.00 | 0.00 | 98 | 1017.7 |
| 20260905082943 | 16 | 157 | 0.0 | 0.0 | 0.00 | 0.00 | 0.00 | 98 | 1017.5 |
| 20260905082439 | 16 | 134 | 0.0 | 0.0 | 0.00 | 0.00 | 0.00 | 98 | 1017.7 |
| 20260905081934 | 16 | 131 | 0.0 | 0.0 | 0.00 | 0.00 | 0.00 | 98 | 1017.8 |
| 20260905081433 | 16 | 161 | 0.0 | 0.0 | 0.00 | 0.00 | 0.00 | 98 | 1017.7 |
| 20260905080932 | 16 | 161 | 0.0 | 0.0 | 0.00 | 0.00 | 0.00 | 98 | 1017.7 |
| 20260905080427 | 16 | 160 | 0.0 | 0.0 | 0.00 | 0.00 | 0.00 | 98 | 1017.6 |
| 20260905075926 | 16 | 160 | 0.0 | 0.0 | 0.00 | 0.00 | 0.00 | 98 | 1017.8 |
| 20260905075420 | 16 | 167 | 0.0 | 0.0 | 0.00 | 0.00 | 0.00 | 98 | 1017.8 |
| 20260905074919 | 16 | 175 | 0.0 | 0.0 | 0.00 | 0.00 | 0.00 | 97 | 1017.8 |
| 20260905074415 | 15 | 161 | 0.0 | 0.0 | 0.00 | 0.00 | 0.00 | 96 | 1017.6 |
| 20260905073911 | 16 | 161 | 0.0 | 0.0 | 0.00 | 0.00 | 0.00 | 96 | 1017.9 |
| 20260905073406 | 16 | 161 | 0.0 | 0.0 | 0.00 | 0.00 | 0.00 | 97 | 1017.7 |
| 20260905072902 | 16 | 161 | 0.0 | 0.0 | 0.00 | 0.00 | 0.00 | 96 | 1017.9 |
| 20260905072356 | 16 | 161 | 0.0 | 0.0 | 0.00 | 0.00 | 0.00 | 96 | 1017.9 |
| 20260905071852 | 16 | 167 | 0.0 | 0.0 | 0.00 | 0.00 | 0.00 | 96 | 1017.7 |
| 20260905071343 | 16 | 179 | 0.0 | 0.0 | 0.00 | 0.00 | 0.00 | 96 | 1017.7 |
| 20260905070842 | 16 | 164 | 0.0 | 0.0 | 0.00 | 0.00 | 0.00 | 94 | 1017.7 |
| 20260905070339 | 16 | 166 | 0.0 | 0.0 | 0.00 | 0.00 | 0.00 | 94 | 1017.6 |
| 20260905065838 | 16 | 215 | 0.0 | 0.0 | 0.00 | 0.00 | 0.00 | 94 | 1017.6 |
| 20260905065336 | 16 | 185 | 0.0 | 0.0 | 0.00 | 0.00 | 0.00 | 94 | 1017.8 |
| 20260905064832 | 16 | 159 | 0.0 | 0.0 | 0.00 | 0.00 | 0.00 | 94 | 1017.7 |
| 20260905064328 | 16 | 174 | 0.0 | 0.0 | 0.00 | 0.00 | 0.00 | 94 | 1017.6 |
| 20260905063826 | 16 | 167 | 0.0 | 0.0 | 0.00 | 0.00 | 0.00 | 94 | 1017.5 |
| 20260905063322 | 16 | 162 | 0.0 | 0.0 | 0.00 | 0.00 | 0.00 | 94 | 1017.6 |
| 20260905062819 | 16 | 161 | 0.0 | 0.0 | 0.00 | 0.00 | 0.00 | 94 | 1017.4 |
| 20260905062313 | 16 | 158 | 0.0 | 0.0 | 0.00 | 0.00 | 0.00 | 94 | 1017.4 |
| 20260905061808 | 16 | 171 | 0.0 | 0.0 | 0.00 | 0.00 | 0.00 | 93 | 1017.4 |
| 20260905061307 | 16 | 146 | 0.0 | 0.0 | 0.00 | 0.00 | 0.00 | 93 | 1017.4 |
| 20260905060802 | 16 | 156 | 0.0 | 0.0 | 0.00 | 0.00 | 0.00 | 93 | 1017.7 |
| 20260905060259 | 16 | 156 | 0.0 | 0.0 | 0.00 | 0.00 | 0.00 | 93 | 1017.5 |
| 20260905055757 | 16 | 156 | 0.0 | 0.0 | 0.00 | 0.00 | 0.00 | 92 | 1017.4 |
| 20260905055252 | 16 | 157 | 0.0 | 0.0 | 0.00 | 0.00 | 0.00 | 92 | 1017.5 |
| 20260905054747 | 17 | 168 | 0.0 | 0.0 | 0.00 | 0.00 | 0.00 | 92 | 1017.5 |
| 20260905054244 | 17 | 170 | 0.0 | 0.0 | 0.00 | 0.00 | 0.00 | 93 | 1017.3 |
| 20260905053743 | 17 | 168 | 0.0 | 0.0 | 0.00 | 0.00 | 0.00 | 94 | 1017.4 |
| 20260905053238 | 17 | 163 | 0.0 | 0.0 | 0.00 | 0.00 | 0.00 | 94 | 1017.6 |
| 20260905052738 | 17 | 168 | 0.0 | 0.0 | 0.00 | 0.00 | 0.00 | 95 | 1017.5 |
| 20260905052233 | 17 | 153 | 0.0 | 0.0 | 0.00 | 0.00 | 0.00 | 94 | 1017.8 |
| 20260905051732 | 17 | 158 | 0.0 | 0.0 | 0.00 | 0.00 | 0.00 | 94 | 1017.5 |
| 20260905051229 | 17 | 169 | 0.0 | 0.0 | 0.00 | 0.00 | 0.00 | 94 | 1017.5 |
| 20260905050725 | 17 | 158 | 0.0 | 0.0 | 0.00 | 0.00 | 0.00 | 94 | 1017.7 |
| 20260905050222 | 17 | 167 | 0.0 | 0.0 | 0.00 | 0.00 | 0.00 | 94 | 1017.8 |
| 20260905045721 | 17 | 169 | 0.0 | 0.0 | 0.00 | 0.00 | 0.00 | 94 | 1017.6 |
| 20260905045217 | 17 | 162 | 0.0 | 0.0 | 0.00 | 0.00 | 0.00 | 93 | 1017.8 |
| 20260905044712 | 17 | 159 | 0.0 | 0.0 | 0.00 | 0.00 | 0.00 | 94 | 1017.6 |
| 20260905044207 | 17 | 162 | 0.0 | 0.0 | 0.00 | 0.00 | 0.00 | 93 | 1017.4 |
| 20260905043706 | 17 | 164 | 0.0 | 0.0 | 0.00 | 0.00 | 0.00 | 94 | 1017.5 |
| 20260905043201 | 17 | 164 | 0.0 | 0.0 | 0.00 | 0.00 | 0.00 | 94 | 1017.6 |
| 20260905042701 | 17 | 171 | 0.0 | 0.0 | 0.00 | 0.00 | 0.00 | 94 | 1017.4 |
| 20260905042155 | 17 | 175 | 0.0 | 0.0 | 0.00 | 0.00 | 0.00 | 94 | 1017.4 |
| 20260905041651 | 17 | 168 | 0.0 | 0.0 | 0.00 | 0.00 | 0.00 | 94 | 1017.3 |
| 20260905041146 | 17 | 176 | 0.0 | 0.0 | 0.00 | 0.00 | 0.00 | 94 | 1017.2 |
| 20260905040641 | 17 | 158 | 0.0 | 0.0 | 0.00 | 0.00 | 0.00 | 93 | 1017.4 |
| 20260905040139 | 17 | 164 | 0.0 | 0.0 | 0.00 | 0.00 | 0.00 | 93 | 1017.5 |
| 20260905035634 | 17 | 157 | 0.0 | 0.0 | 0.00 | 0.00 | 0.00 | 92 | 1017.1 |
| 20260905035131 | 17 | 156 | 0.0 | 0.0 | 0.00 | 0.00 | 0.00 | 92 | 1017.1 |
| 20260905034626 | 18 | 163 | 0.0 | 0.0 | 0.00 | 0.00 | 0.00 | 91 | 1017.1 |
| 20260905034126 | 18 | 161 | 0.0 | 0.0 | 0.00 | 0.00 | 0.00 | 91 | 1017.1 |
| 20260905033620 | 18 | 167 | 0.0 | 0.0 | 0.00 | 0.00 | 0.00 | 90 | 1017.1 |
| 20260905033115 | 18 | 165 | 0.0 | 0.0 | 0.00 | 0.00 | 0.00 | 90 | 1016.9 |
| 20260905032609 | 18 | 159 | 0.0 | 0.0 | 0.00 | 0.00 | 0.00 | 90 | 1017.0 |
| 20260905032104 | 18 | 164 | 0.0 | 0.0 | 0.00 | 0.00 | 0.00 | 89 | 1016.9 |
| 20260905031600 | 18 | 154 | 0.0 | 0.0 | 0.00 | 0.00 | 0.00 | 88 | 1016.8 |
| 20260905031100 | 18 | 157 | 0.0 | 0.0 | 0.00 | 0.00 | 0.00 | 88 | 1016.8 |
| 20260905030555 | 18 | 157 | 0.0 | 0.0 | 0.00 | 0.00 | 0.00 | 88 | 1016.6 |
| 20260905030050 | 19 | 146 | 0.0 | 0.0 | 0.00 | 0.00 | 0.00 | 87 | 1016.7 |
| 20260905025545 | 19 | 146 | 0.0 | 0.0 | 0.00 | 0.00 | 0.00 | 87 | 1016.7 |
| 20260905025041 | 19 | 138 | 0.0 | 0.0 | 0.00 | 0.00 | 0.00 | 86 | 1016.8 |
| 20260905024536 | 19 | 133 | 0.0 | 0.0 | 0.00 | 0.00 | 0.00 | 86 | 1016.7 |
| 20260905024032 | 20 | 156 | 0.0 | 0.0 | 0.00 | 0.00 | 0.00 | 86 | 1016.6 |
| 20260905023527 | 20 | 158 | 0.0 | 1.6 | 0.00 | 0.00 | 0.00 | 85 | 1016.5 |
| 20260905023026 | 20 | 142 | 0.0 | 3.2 | 0.00 | 0.00 | 0.00 | 84 | 1016.8 |
| 20260905022521 | 20 | 329 | 3.2 | 4.8 | 0.00 | 0.00 | 0.00 | 84 | 1016.6 |
| 20260905022016 | 20 | 123 | 1.6 | 3.2 | 0.00 | 0.00 | 0.00 | 83 | 1016.5 |
| 20260905021515 | 20 | 90 | 1.6 | 1.6 | 0.00 | 0.00 | 0.00 | 82 | 1016.5 |
| 20260905021011 | 21 | 160 | 0.0 | 1.6 | 0.00 | 0.00 | 0.00 | 81 | 1016.6 |
| 20260905020505 | 21 | 129 | 1.6 | 1.6 | 0.00 | 0.00 | 0.00 | 80 | 1016.5 |
| 20260905020005 | 21 | 114 | 0.0 | 0.0 | 0.00 | 0.00 | 0.00 | 80 | 1016.6 |
| 20260905015503 | 21 | 213 | 1.6 | 3.2 | 0.00 | 0.00 | 0.00 | 79 | 1016.4 |
| 20260905015003 | 21 | 148 | 1.6 | 4.8 | 0.00 | 0.00 | 0.00 | 78 | 1016.6 |
| 20260905014458 | 21 | 199 | 3.2 | 4.8 | 0.00 | 0.00 | 0.00 | 75 | 1016.8 |
| 20260905013953 | 21 | 262 | 1.6 | 4.8 | 0.00 | 0.00 | 0.00 | 75 | 1016.8 |
| 20260905013450 | 21 | 187 | 3.2 | 11.3 | 0.00 | 0.00 | 0.00 | 74 | 1016.7 |
| 20260905012945 | 21 | 158 | 0.0 | 4.8 | 0.00 | 0.00 | 0.00 | 75 | 1016.7 |
| 20260905012440 | 22 | 91 | 1.6 | 1.6 | 0.00 | 0.00 | 0.00 | 75 | 1016.8 |
| 20260905011937 | 22 | 257 | 3.2 | 9.7 | 0.00 | 0.00 | 0.00 | 74 | 1016.8 |
| 20260905011433 | 22 | 263 | 4.8 | 9.7 | 0.00 | 0.00 | 0.00 | 73 | 1016.7 |
| 20260905010928 | 23 | 158 | 1.6 | 9.7 | 0.00 | 0.00 | 0.00 | 72 | 1016.9 |
| 20260905010423 | 23 | 220 | 4.8 | 4.8 | 0.00 | 0.00 | 0.00 | 72 | 1016.7 |
| 20260905005919 | 23 | 137 | 1.6 | 3.2 | 0.00 | 0.00 | 0.00 | 71 | 1016.7 |
| 20260905005415 | 23 | 278 | 3.2 | 11.3 | 0.00 | 0.00 | 0.00 | 71 | 1016.7 |
| 20260905004909 | 23 | 191 | 3.2 | 6.4 | 0.00 | 0.00 | 0.00 | 70 | 1016.7 |
| 20260905004409 | 23 | 34 | 3.2 | 4.8 | 0.00 | 0.00 | 0.00 | 70 | 1016.6 |
| 20260905003905 | 23 | 265 | 6.4 | 11.3 | 0.00 | 0.00 | 0.00 | 69 | 1016.6 |
| 20260905003401 | 23 | 286 | 6.4 | 9.7 | 0.00 | 0.00 | 0.00 | 68 | 1016.6 |
| 20260905002856 | 24 | 160 | 1.6 | 6.4 | 0.00 | 0.00 | 0.00 | 67 | 1016.4 |
| 20260905002355 | 25 | 237 | 3.2 | 9.7 | 0.00 | 0.00 | 0.00 | 66 | 1016.6 |
| 20260905001845 | 24 | 196 | 1.6 | 4.8 | 0.00 | 0.00 | 0.00 | 67 | 1016.7 |
| 20260905001344 | 25 | 260 | 3.2 | 4.8 | 0.00 | 0.00 | 0.00 | 66 | 1016.6 |
| 20260905000839 | 25 | 273 | 6.4 | 9.7 | 0.00 | 0.00 | 0.00 | 66 | 1016.7 |
| 20260905000334 | 24 | 168 | 1.6 | 4.8 | 0.00 | 0.00 | 0.00 | 66 | 1016.9 |
| 20260904235830 | 24 | 202 | 4.8 | 6.4 | 0.00 | 0.00 | 0.00 | 66 | 1016.7 |
| 20260904235325 | 25 | 283 | 8.0 | 12.9 | 0.00 | 0.00 | 0.00 | 64 | 1016.6 |
| 20260904234821 | 25 | 119 | 0.0 | 4.8 | 0.00 | 0.00 | 0.00 | 64 | 1016.5 |
| 20260904234321 | 25 | 204 | 9.7 | 14.5 | 0.00 | 0.00 | 0.00 | 64 | 1016.6 |
| 20260904233817 | 25 | 255 | 6.4 | 9.7 | 0.00 | 0.00 | 0.00 | 64 | 1016.7 |
| 20260904233312 | 25 | 157 | 0.0 | 3.2 | 0.00 | 0.00 | 0.00 | 65 | 1016.6 |
| 20260904232809 | 25 | 236 | 8.0 | 11.3 | 0.00 | 0.00 | 0.00 | 64 | 1016.8 |
| 20260904232307 | 25 | 247 | 11.3 | 14.5 | 0.00 | 0.00 | 0.00 | 64 | 1016.6 |
| 20260904231801 | 26 | 47 | 4.8 | 12.9 | 0.00 | 0.00 | 0.00 | 64 | 1016.6 |
| 20260904231255 | 26 | 172 | 3.2 | 9.7 | 0.00 | 0.00 | 0.00 | 64 | 1016.5 |
| 20260904230750 | 25 | 172 | 0.0 | 3.2 | 0.00 | 0.00 | 0.00 | 64 | 1016.5 |
| 20260904230244 | 26 | 281 | 1.6 | 11.3 | 0.00 | 0.00 | 0.00 | 63 | 1016.4 |
| 20260904225744 | 26 | 123 | 4.8 | 11.3 | 0.00 | 0.00 | 0.00 | 62 | 1016.8 |
| 20260904225238 | 26 | 250 | 4.8 | 9.7 | 0.00 | 0.00 | 0.00 | 62 | 1016.6 |
| 20260904224737 | 26 | 203 | 1.6 | 6.4 | 0.00 | 0.00 | 0.00 | 62 | 1016.6 |
| 20260904224233 | 27 | 132 | 3.2 | 6.4 | 0.00 | 0.00 | 0.00 | 61 | 1016.3 |
| 20260904223732 | 26 | 172 | 3.2 | 4.8 | 0.00 | 0.00 | 0.00 | 61 | 1016.6 |
| 20260904223227 | 26 | 275 | 1.6 | 11.3 | 0.00 | 0.00 | 0.00 | 62 | 1016.5 |
| 20260904222723 | 26 | 228 | 4.8 | 12.9 | 0.00 | 0.00 | 0.00 | 62 | 1016.4 |
| 20260904222218 | 26 | 242 | 1.6 | 4.8 | 0.00 | 0.00 | 0.00 | 62 | 1016.6 |
| 20260904221717 | 26 | 244 | 4.8 | 14.5 | 0.00 | 0.00 | 0.00 | 62 | 1016.6 |
| 20260904221213 | 26 | 21 | 4.8 | 12.9 | 0.00 | 0.00 | 0.00 | 62 | 1016.7 |
| 20260904220707 | 27 | 162 | 3.2 | 6.4 | 0.00 | 0.00 | 0.00 | 61 | 1016.5 |
| 20260904220157 | 27 | 236 | 4.8 | 6.4 | 0.00 | 0.00 | 0.00 | 60 | 1016.6 |
| 20260904215656 | 26 | 85 | 0.0 | 3.2 | 0.00 | 0.00 | 0.00 | 62 | 1016.8 |
| 20260904215153 | 26 | 149 | 3.2 | 4.8 | 0.00 | 0.00 | 0.00 | 62 | 1016.7 |
| 20260904214652 | 26 | 253 | 4.8 | 9.7 | 0.00 | 0.00 | 0.00 | 62 | 1016.7 |
| 20260904214148 | 26 | 38 | 4.8 | 9.7 | 0.00 | 0.00 | 0.00 | 63 | 1016.7 |